DW9948 Weather Reports


Display with metric or nautical units.
time (UTC)temp
F
wind
direction
speed
MPH
gust
MPH
rain 1hr
in
rain 24hr
in
rain mn
in
humidity
%
barometer
mb
20180920140808 79 143 3.0 7.0 0.00 0.00 0.00 69 1012.9
20180920140308 79 143 4.0 6.0 0.00 0.00 0.00 69 1012.9
20180920135807 78 137 2.0 3.0 0.00 0.00 0.00 68 1012.9
20180920135307 78 141 3.0 6.0 0.00 0.00 0.00 67 1012.9
20180920134807 78 132 3.0 3.0 0.00 0.00 0.00 66 1012.9
20180920134308 77 125 1.0 3.0 0.00 0.00 0.00 66 1013.0
20180920133807 77 139 2.0 5.0 0.00 0.00 0.00 65 1013.0
20180920133307 77 132 2.0 3.0 0.00 0.00 0.00 64 1013.0
20180920132807 76 124 1.0 3.0 0.00 0.00 0.00 63 1013.0
20180920132308 76 132 2.0 3.0 0.00 0.00 0.00 62 1013.0
20180920131808 76 115 2.0 3.0 0.00 0.00 0.00 61 1013.0
20180920131307 76 130 2.0 3.0 0.00 0.00 0.00 61 1013.0
20180920130807 75 126 1.0 2.0 0.00 0.00 0.00 61 1013.0
20180920130307 75 125 1.0 2.0 0.00 0.00 0.00 61 1013.0
20180920125807 75 129 1.0 2.0 0.00 0.00 0.00 61 1013.1
20180920125307 75 129 1.0 2.0 0.00 0.00 0.00 61 1013.0
20180920124807 75 126 2.0 2.0 0.00 0.00 0.00 61 1013.0
20180920124308 75 126 1.0 2.0 0.00 0.00 0.00 62 1013.0
20180920123807 75 125 1.0 2.0 0.00 0.00 0.00 62 1012.9
20180920123307 75 125 1.0 2.0 0.00 0.00 0.00 62 1012.9
20180920122807 75 132 1.0 2.0 0.00 0.00 0.00 62 1012.9
20180920122308 75 122 1.0 2.0 0.00 0.00 0.00 63 1012.9
20180920121808 75 125 1.0 2.0 0.00 0.00 0.00 63 1012.9
20180920121307 75 120 1.0 2.0 0.00 0.00 0.00 64 1012.9
20180920120807 76 129 1.0 2.0 0.00 0.00 0.00 64 1012.9
20180920120307 76 119 1.0 3.0 0.00 0.00 0.00 64 1012.8
20180920115807 76 127 1.0 2.0 0.00 0.00 0.00 65 1012.7
20180920115308 76 125 1.0 2.0 0.00 0.00 0.00 65 1012.7
20180920114952 76 131 1.0 3.0 0.00 0.00 0.00 65 1012.6
20180920114308 76 129 1.0 2.0 0.00 0.00 0.00 65 1012.5
20180920113807 76 124 1.0 2.0 0.00 0.00 0.00 66 1012.5
20180920113307 76 129 2.0 3.0 0.00 0.00 0.00 66 1012.5
20180920112807 76 118 1.0 2.0 0.00 0.00 0.00 66 1012.4
20180920112307 76 123 1.0 2.0 0.00 0.00 0.00 66 1012.4
20180920111807 76 133 1.0 3.0 0.00 0.00 0.00 66 1012.4
20180920111307 76 140 1.0 3.0 0.00 0.00 0.00 66 1012.3
20180920110807 76 135 2.0 3.0 0.00 0.00 0.00 66 1012.2
20180920110307 76 129 1.0 2.0 0.00 0.00 0.00 67 1012.2
20180920105808 76 129 1.0 2.0 0.00 0.00 0.00 67 1012.2
20180920105307 76 128 1.0 2.0 0.00 0.00 0.00 67 1012.1
20180920104808 77 129 1.0 2.0 0.00 0.00 0.00 68 1012.0
20180920104307 77 122 1.0 2.0 0.00 0.00 0.00 68 1012.0
20180920103808 77 125 1.0 2.0 0.00 0.00 0.00 68 1012.0
20180920103308 77 119 1.0 2.0 0.00 0.00 0.00 68 1012.0
20180920102808 77 121 1.0 2.0 0.00 0.00 0.00 69 1012.0
20180920102308 77 131 1.0 2.0 0.00 0.00 0.00 69 1012.0
20180920101808 77 128 1.0 3.0 0.00 0.00 0.00 69 1012.0
20180920101307 77 134 2.0 3.0 0.00 0.00 0.00 69 1012.0
20180920100807 77 130 1.0 3.0 0.00 0.00 0.00 69 1011.9
20180920100308 77 131 1.0 3.0 0.00 0.00 0.00 69 1011.8
20180920095808 78 137 1.0 3.0 0.00 0.00 0.00 69 1011.8
20180920095307 78 125 2.0 3.0 0.00 0.00 0.00 70 1011.8
20180920094808 78 132 2.0 3.0 0.00 0.00 0.00 70 1011.8
20180920094309 78 139 2.0 3.0 0.00 0.00 0.00 70 1011.8
20180920093808 78 140 2.0 3.0 0.00 0.00 0.00 70 1011.8
20180920093308 78 139 1.0 3.0 0.00 0.00 0.00 70 1011.8
20180920092808 78 143 2.0 3.0 0.00 0.00 0.00 70 1011.7
20180920092308 78 136 2.0 3.0 0.00 0.00 0.00 70 1011.7
20180920091807 78 133 2.0 3.0 0.00 0.00 0.00 70 1011.7
20180920091308 78 141 2.0 3.0 0.00 0.00 0.00 70 1011.7
20180920090807 78 131 2.0 3.0 0.00 0.00 0.00 70 1011.8
20180920090307 78 134 2.0 5.0 0.00 0.00 0.00 70 1011.9
20180920085808 78 131 2.0 3.0 0.00 0.00 0.00 70 1011.8
20180920085307 78 131 2.0 3.0 0.00 0.00 0.00 70 1011.8
20180920084808 78 141 2.0 3.0 0.00 0.00 0.00 70 1011.8
20180920084307 78 136 3.0 5.0 0.00 0.00 0.00 70 1011.8
20180920083808 78 136 2.0 5.0 0.00 0.00 0.00 70 1011.9
20180920083307 78 140 2.0 5.0 0.00 0.00 0.00 70 1011.9
20180920082807 78 137 3.0 5.0 0.00 0.00 0.00 70 1011.9
20180920082308 78 139 2.0 5.0 0.00 0.00 0.00 70 1011.9
20180920081808 78 139 2.0 3.0 0.00 0.00 0.00 70 1011.9
20180920081308 78 135 3.0 5.0 0.00 0.00 0.00 70 1011.9
20180920080807 78 137 2.0 3.0 0.00 0.00 0.00 70 1011.9
20180920080307 78 145 2.0 3.0 0.00 0.00 0.00 70 1012.0
20180920075808 78 142 2.0 5.0 0.00 0.00 0.00 70 1012.0
20180920075307 78 132 1.0 3.0 0.00 0.00 0.00 70 1012.0
20180920074807 78 129 1.0 2.0 0.00 0.00 0.00 70 1012.0
20180920074307 78 133 2.0 3.0 0.00 0.00 0.00 71 1011.9
20180920073808 78 132 2.0 3.0 0.00 0.00 0.00 71 1011.9
20180920073307 78 132 2.0 3.0 0.00 0.00 0.00 71 1011.8
20180920072808 78 133 2.0 3.0 0.00 0.00 0.00 71 1011.8
20180920072307 79 131 2.0 3.0 0.00 0.00 0.00 71 1011.8
20180920071809 79 130 2.0 3.0 0.00 0.00 0.00 71 1011.8
20180920071308 79 128 2.0 3.0 0.00 0.00 0.00 71 1011.8
20180920070807 79 128 2.0 3.0 0.00 0.00 0.00 71 1011.8
20180920070308 79 128 1.0 3.0 0.00 0.00 0.00 70 1011.8
20180920065808 79 132 2.0 3.0 0.00 0.00 0.00 70 1011.8
20180920065308 79 128 1.0 3.0 0.00 0.00 0.00 70 1011.8
20180920064807 80 129 2.0 5.0 0.00 0.00 0.00 70 1011.9
20180920064307 80 132 2.0 3.0 0.00 0.00 0.00 70 1011.9
20180920063808 80 136 3.0 5.0 0.00 0.00 0.00 70 1011.8
20180920063307 80 125 2.0 3.0 0.00 0.00 0.00 70 1011.8
20180920062807 80 131 2.0 3.0 0.00 0.00 0.00 70 1011.8
20180920062308 80 126 2.0 3.0 0.00 0.00 0.00 70 1011.9
20180920061808 80 131 2.0 3.0 0.00 0.00 0.00 70 1011.9
20180920061308 80 133 2.0 5.0 0.00 0.00 0.00 70 1012.0
20180920055808 81 132 2.0 3.0 0.00 0.00 0.00 70 1012.0
20180920055307 81 136 2.0 3.0 0.00 0.00 0.00 70 1012.0
20180920054807 81 130 2.0 5.0 0.00 0.00 0.00 70 1012.0
20180920054308 81 132 2.0 3.0 0.00 0.00 0.00 69 1012.0
20180920053808 81 142 2.0 5.0 0.00 0.00 0.00 69 1011.9
20180920053308 81 132 2.0 3.0 0.00 0.00 0.00 69 1011.9
20180920051808 81 128 3.0 5.0 0.00 0.00 0.00 69 1012.0
20180920051307 81 132 3.0 6.0 0.00 0.00 0.00 69 1011.9
20180920050830 81 137 3.0 5.0 0.00 0.00 0.00 69 1011.9
20180920050308 82 133 3.0 6.0 0.00 0.00 0.00 68 1011.9
20180920045808 82 141 3.0 6.0 0.00 0.00 0.00 68 1012.0
20180920045308 82 142 3.0 5.0 0.00 0.00 0.00 68 1012.0
20180920044808 82 138 3.0 5.0 0.00 0.00 0.00 68 1011.9
20180920044308 82 138 3.0 6.0 0.00 0.00 0.00 68 1011.8
20180920043808 82 132 2.0 3.0 0.00 0.00 0.00 68 1011.8
20180920043307 82 135 2.0 3.0 0.00 0.00 0.00 68 1011.8
20180920042808 82 137 3.0 5.0 0.00 0.00 0.00 68 1011.7
20180920042308 82 135 3.0 5.0 0.00 0.00 0.00 67 1011.7
20180920041808 82 131 2.0 5.0 0.00 0.00 0.00 67 1011.7
20180920041308 82 138 2.0 3.0 0.00 0.00 0.00 67 1011.8
20180920040807 82 132 3.0 5.0 0.00 0.00 0.00 67 1011.7
20180920040308 82 132 3.0 5.0 0.00 0.00 0.00 67 1011.7
20180920035807 82 138 3.0 6.0 0.00 0.00 0.00 67 1011.6
20180920035308 82 136 4.0 8.0 0.00 0.00 0.00 67 1011.5
20180920034807 82 137 4.0 8.0 0.00 0.00 0.00 67 1011.5
20180920034308 82 131 3.0 5.0 0.00 0.00 0.00 68 1011.5
20180920033808 82 136 3.0 5.0 0.00 0.00 0.00 68 1011.4
20180920033307 82 140 3.0 6.0 0.00 0.00 0.00 68 1011.4
20180920032808 81 133 2.0 6.0 0.00 0.00 0.00 69 1011.4
20180920032308 81 124 2.0 5.0 0.00 0.00 0.00 69 1011.4
20180920031807 82 137 2.0 3.0 0.00 0.00 0.00 69 1011.4
20180920031308 82 127 2.0 3.0 0.00 0.00 0.00 69 1011.4
20180920030808 82 131 2.0 3.0 0.00 0.00 0.00 69 1011.4
20180920030308 82 117 1.0 3.0 0.00 0.00 0.00 69 1011.3
20180920025807 82 125 1.0 3.0 0.00 0.00 0.00 69 1011.3
20180920025307 82 125 2.0 3.0 0.00 0.00 0.00 69 1011.3
20180920024808 82 127 2.0 3.0 0.00 0.00 0.00 69 1011.3
20180920024307 82 116 1.0 2.0 0.00 0.00 0.00 69 1011.3
20180920023807 82 115 1.0 2.0 0.00 0.00 0.00 69 1011.3
20180920023307 81 105 0.0 2.0 0.00 0.00 0.00 69 1011.4
20180920022808 82 111 0.0 1.0 0.00 0.00 0.00 69 1011.4
20180920022308 82 113 0.0 2.0 0.00 0.00 0.00 69 1011.3
20180920021808 82 113 1.0 1.0 0.00 0.00 0.00 69 1011.3
20180920021308 82 98 1.0 1.0 0.00 0.00 0.00 69 1011.2
20180920020808 82 101 0.0 2.0 0.00 0.00 0.00 69 1011.1
20180920020307 82 109 1.0 2.0 0.00 0.00 0.00 69 1011.0
20180920015808 82 102 0.0 1.0 0.00 0.00 0.00 69 1011.0
20180920015307 82 106 0.0 1.0 0.00 0.00 0.00 69 1011.0
20180920014807 82 106 0.0 1.0 0.00 0.00 0.00 69 1010.9
20180920014307 82 108 0.0 1.0 0.00 0.00 0.00 69 1011.0
20180920013808 82 116 0.0 1.0 0.00 0.00 0.00 69 1011.0
20180920013308 82 116 0.0 1.0 0.00 0.00 0.00 69 1010.9
20180920012807 82 116 0.0 1.0 0.00 0.00 0.00 69 1010.8
20180920012307 82 118 0.0 1.0 0.00 0.00 0.00 69 1010.7
20180920011807 82 118 0.0 0.0 0.00 0.00 0.00 69 1010.7
20180920011308 83 119 0.0 1.0 0.00 0.00 0.00 69 1010.7
20180920010807 83 118 0.0 0.0 0.00 0.00 0.00 69 1010.6
20180920010308 83 118 0.0 0.0 0.00 0.00 0.00 69 1010.6
20180920005808 83 118 0.0 0.0 0.00 0.00 0.00 68 1010.5
20180920005308 84 119 0.0 0.0 0.00 0.00 0.00 68 1010.5
20180920004807 84 119 0.0 1.0 0.00 0.00 0.00 68 1010.4
20180920004307 84 119 0.0 1.0 0.00 0.00 0.00 68 1010.4
20180920003809 84 119 0.0 1.0 0.00 0.00 0.00 67 1010.4
20180920003307 85 119 0.0 0.0 0.00 0.00 0.00 67 1010.4
20180920002808 85 119 0.0 0.0 0.00 0.00 0.00 66 1010.4
20180920002307 86 119 0.0 1.0 0.00 0.00 0.00 66 1010.4
20180920001807 86 119 0.0 1.0 0.00 0.00 0.00 66 1010.4
20180920001308 86 119 0.0 1.0 0.00 0.00 0.00 65 1010.4
20180920000808 87 119 0.0 1.0 0.00 0.00 0.00 65 1010.4
20180920000308 87 120 0.0 0.0 0.00 0.00 0.00 64 1010.4
20180919235808 88 120 0.0 0.0 0.00 0.00 0.00 63 1010.4
20180919235308 88 120 0.0 0.0 0.00 0.00 0.00 63 1010.3
20180919234807 89 120 0.0 1.0 0.00 0.00 0.00 62 1010.3
20180919234308 89 118 0.0 1.0 0.00 0.00 0.00 62 1010.3
20180919233808 89 136 1.0 2.0 0.00 0.00 0.00 62 1010.3
20180919233308 89 139 1.0 1.0 0.00 0.00 0.00 61 1010.3
20180919232807 89 149 1.0 2.0 0.00 0.00 0.00 61 1010.4
20180919232307 90 145 1.0 2.0 0.00 0.00 0.00 60 1010.4
20180919231808 90 134 1.0 3.0 0.00 0.00 0.00 60 1010.3
20180919231307 90 129 1.0 3.0 0.00 0.00 0.00 60 1010.4
20180919230808 90 125 1.0 2.0 0.00 0.00 0.00 59 1010.4
20180919230308 90 128 1.0 2.0 0.00 0.00 0.00 59 1010.5
20180919225807 91 144 2.0 3.0 0.00 0.00 0.00 58 1010.5
20180919225308 91 144 2.0 3.0 0.00 0.00 0.00 58 1010.5
20180919224808 91 147 2.0 3.0 0.00 0.00 0.00 57 1010.5
20180919224307 91 137 2.0 5.0 0.00 0.00 0.00 58 1010.5
20180919223807 91 142 2.0 5.0 0.00 0.00 0.00 56 1010.5
20180919223308 92 135 2.0 3.0 0.00 0.00 0.00 57 1010.5
20180919222808 92 124 3.0 5.0 0.00 0.00 0.00 55 1010.6
20180919222308 92 153 1.0 3.0 0.00 0.00 0.00 56 1010.6
20180919221808 92 147 1.0 3.0 0.00 0.00 0.00 56 1010.6
20180919221308 92 138 2.0 6.0 0.00 0.00 0.00 56 1010.6
20180919220808 92 143 4.0 8.0 0.00 0.00 0.00 54 1010.6
20180919220307 92 127 1.0 3.0 0.00 0.00 0.00 55 1010.6
20180919215808 92 146 2.0 5.0 0.00 0.00 0.00 55 1010.7
20180919215308 92 144 3.0 3.0 0.00 0.00 0.00 54 1010.7
20180919214808 92 144 3.0 6.0 0.00 0.00 0.00 55 1010.7
20180919214307 92 127 2.0 3.0 0.00 0.00 0.00 56 1010.8
20180919213808 92 147 2.0 5.0 0.00 0.00 0.00 56 1010.8
20180919213308 92 145 5.0 8.0 0.00 0.00 0.00 55 1010.8
20180919212807 92 140 2.0 6.0 0.00 0.00 0.00 57 1010.8
20180919212308 92 185 3.0 6.0 0.00 0.00 0.00 56 1010.9
20180919211808 92 153 4.0 10.0 0.00 0.00 0.00 55 1011.0
20180919211308 92 155 3.0 9.0 0.00 0.00 0.00 55 1011.0
20180919210807 92 151 2.0 7.0 0.00 0.00 0.00 55 1011.1
20180919210307 93 140 4.0 7.0 0.00 0.00 0.00 55 1011.2
20180919205807 93 145 3.0 7.0 0.00 0.00 0.00 55 1011.3
20180919205309 93 164 3.0 6.0 0.00 0.00 0.00 54 1011.3
20180919204808 93 133 3.0 7.0 0.00 0.00 0.00 54 1011.3
20180919204308 93 145 3.0 5.0 0.00 0.00 0.00 55 1011.4
20180919203808 94 126 3.0 5.0 0.00 0.00 0.00 55 1011.4
20180919203307 94 152 3.0 5.0 0.00 0.00 0.00 55 1011.5
20180919202808 93 150 2.0 5.0 0.00 0.00 0.00 55 1011.5
20180919202308 93 213 3.0 5.0 0.00 0.00 0.00 55 1011.6
20180919201807 93 211 2.0 3.0 0.00 0.00 0.00 55 1011.6
20180919201308 93 147 2.0 3.0 0.00 0.00 0.00 56 1011.6
20180919200808 93 155 3.0 7.0 0.00 0.00 0.00 56 1011.7
20180919200308 92 231 3.0 5.0 0.00 0.00 0.00 56 1011.8
20180919195808 92 190 3.0 6.0 0.00 0.00 0.00 55 1011.8
20180919195308 92 174 4.0 8.0 0.00 0.00 0.00 56 1011.9
20180919194807 92 164 2.0 6.0 0.00 0.00 0.00 57 1011.9
20180919194307 92 148 2.0 6.0 0.00 0.00 0.00 58 1012.0
20180919193808 92 219 3.0 5.0 0.00 0.00 0.00 56 1012.1
20180919193307 92 146 3.0 6.0 0.00 0.00 0.00 57 1012.1
20180919192808 92 178 3.0 5.0 0.00 0.00 0.00 56 1012.2
20180919192308 92 151 3.0 7.0 0.00 0.00 0.00 57 1012.3
20180919191808 92 152 3.0 6.0 0.00 0.00 0.00 56 1012.4
20180919191307 92 129 3.0 5.0 0.00 0.00 0.00 58 1012.5
20180919190808 92 151 4.0 10.0 0.00 0.00 0.00 59 1012.6
20180919190308 92 163 3.0 7.0 0.00 0.00 0.00 57 1012.6
20180919185808 92 182 3.0 7.0 0.00 0.00 0.00 58 1012.7
20180919185308 91 166 5.0 9.0 0.00 0.00 0.00 56 1012.7
20180919184807 92 161 4.0 7.0 0.00 0.00 0.00 59 1012.9
20180919184309 91 238 2.0 6.0 0.00 0.00 0.00 60 1013.0
20180919183808 91 197 2.0 6.0 0.00 0.00 0.00 61 1013.0
20180919183307 91 176 4.0 9.0 0.00 0.00 0.00 59 1013.1
20180919182808 91 166 4.0 7.0 0.00 0.00 0.00 60 1013.1
20180919182308 91 195 2.0 6.0 0.00 0.00 0.00 61 1013.2
20180919181808 90 172 1.0 5.0 0.00 0.00 0.00 62 1013.2
20180919181308 90 209 3.0 7.0 0.00 0.00 0.00 61 1013.3
20180919180808 89 173 3.0 6.0 0.00 0.00 0.00 62 1013.4
20180919180308 90 222 5.0 9.0 0.00 0.00 0.00 61 1013.5
20180919175808 89 153 3.0 5.0 0.00 0.00 0.00 61 1013.5
20180919175307 89 161 3.0 6.0 0.00 0.00 0.00 61 1013.6
20180919174807 89 148 2.0 7.0 0.00 0.00 0.00 63 1013.6
20180919174308 89 156 3.0 6.0 0.00 0.00 0.00 62 1013.7
20180919173808 89 157 3.0 7.0 0.00 0.00 0.00 62 1013.8
20180919173308 89 141 2.0 3.0 0.00 0.00 0.00 64 1013.8
20180919172808 88 151 3.0 6.0 0.00 0.00 0.00 63 1013.8
20180919172308 88 141 3.0 7.0 0.00 0.00 0.00 64 1013.9
20180919171808 88 158 4.0 10.0 0.00 0.00 0.00 63 1013.9
20180919171307 88 151 3.0 6.0 0.00 0.00 0.00 64 1013.9
20180919170808 88 154 2.0 5.0 0.00 0.00 0.00 64 1014.0
20180919170307 87 154 2.0 3.0 0.00 0.00 0.00 65 1014.0
20180919165808 87 161 3.0 6.0 0.00 0.00 0.00 65 1014.1
20180919165307 87 147 5.0 7.0 0.00 0.00 0.00 65 1014.1
20180919164808 87 140 3.0 8.0 0.00 0.00 0.00 65 1014.2
20180919164308 87 156 3.0 7.0 0.00 0.00 0.00 66 1014.3
20180919163808 86 150 1.0 3.0 0.00 0.00 0.00 67 1014.2
20180919163308 86 152 1.0 3.0 0.00 0.00 0.00 68 1014.2
20180919162808 86 152 3.0 6.0 0.00 0.00 0.00 68 1014.2
20180919162308 85 150 2.0 3.0 0.00 0.00 0.00 68 1014.3
20180919161808 85 148 2.0 3.0 0.00 0.00 0.00 68 1014.2
20180919161308 85 149 1.0 3.0 0.00 0.00 0.00 68 1014.2
20180919160808 85 152 4.0 6.0 0.00 0.00 0.00 68 1014.3
20180919160308 84 152 2.0 5.0 0.00 0.00 0.00 68 1014.3
20180919155808 84 151 3.0 6.0 0.00 0.00 0.00 68 1014.4
20180919155308 84 147 3.0 3.0 0.00 0.00 0.00 69 1014.3
20180919154808 84 152 3.0 5.0 0.00 0.00 0.00 69 1014.4
20180919154308 84 149 1.0 3.0 0.00 0.00 0.00 69 1014.4
20180919153808 83 149 2.0 5.0 0.00 0.00 0.00 69 1014.4
20180919153308 83 140 3.0 6.0 0.00 0.00 0.00 69 1014.4
20180919152808 83 147 2.0 3.0 0.00 0.00 0.00 70 1014.4
20180919152308 83 141 2.0 2.0 0.00 0.00 0.00 70 1014.3
20180919151808 82 139 2.0 3.0 0.00 0.00 0.00 70 1014.4
20180919151308 82 139 2.0 3.0 0.00 0.00 0.00 70 1014.4
20180919150808 82 143 2.0 5.0 0.00 0.00 0.00 70 1014.3
20180919150308 81 150 1.0 2.0 0.00 0.00 0.00 70 1014.3
20180919145807 81 136 2.0 3.0 0.00 0.00 0.00 70 1014.3
20180919145308 80 149 2.0 3.0 0.00 0.00 0.00 70 1014.3
20180919144808 80 147 2.0 3.0 0.00 0.00 0.00 70 1014.3
20180919144308 80 147 1.0 2.0 0.00 0.00 0.00 70 1014.2
20180919143808 80 147 2.0 3.0 0.00 0.00 0.00 70 1014.2
20180919143308 80 143 0.0 2.0 0.00 0.00 0.00 70 1014.2
20180919142808 79 139 1.0 3.0 0.00 0.00 0.00 70 1014.0
20180919142308 79 139 1.0 2.0 0.00 0.00 0.00 69 1014.1
20180919141808 79 140 2.0 3.0 0.00 0.00 0.00 69 1014.1
20180919141308 78 138 1.0 2.0 0.00 0.00 0.00 69 1014.0